Location: Besigheim
(48.9980°N, 9.1427°E)
Time: 17:17:14
(UTC+00:00)

SL-24 R/B - RUBIN 2 - Pass Details

Date: 22 February 2026
Orbit: 603 x 984 km, 64.6° (Epoch: 8 March)

Event Time Altitude Azimuth Distance (km) Brightness Sun altitude
Exits shadow 02:48:01 12° 13° (NNE) 1,884 6.4 -34.6°
Drops below altitude 10° 02:48:28 10° 17° (NNE) 1,989 6.6 -34.5°
Sets 02:51:23 0° 38° (NE) 2,872 7.8 -34.1°
